Regional Weather Roundup
Issued by NWS Austin/San Antonio, TX

Current Version | Previous Version | Text Only | Print | Product List | Glossary On
Versions: 1 2 3 4 5 6 7 8 9 10 11 12 13 14 15 16 17 18 19 20 21 22 23 24 25 26 27 28 29 30 31 32 33 34 35 36 37 38 39 40 41 42 43 44 45 46 47 48 49 50
000
ASUS44 KEWX 242310
RWREWX
SOUTH TEXAS REGIONAL WEATHER ROUNDUP
NATIONAL WEATHER SERVICE AUSTIN/SAN ANTONIO TX
600 PM CDT FRI JUN 24 2022

NOTE: "FAIR" INDICATED FEW OR NO CLOUDS BELOW 12,000 FEET WITH NO
SIGNIFICANT WEATHER AND/OR OBSTRUCTIONS TO VISIBILITY.

* - THESE STATIONS ARE NOT NWS OR FAA STATIONS...AND ARE NOT SUBJECT
    TO NWS AND FAA QUALITY CONTROL.

TXZ171-172-183>190-250000-
TEXAS HILL COUNTRY AND EDWARDS PLATEAU

CITY           SKY/WX    TMP DP  RH WIND       PRES   REMARKS
JUNCTION       SUNNY    101  48  16 S7G21     29.87F HX  97
*LLANO         SUNNY    102  50  17 S12G17    29.84S HX  99
BURNET         SUNNY     99  57  24 SE13G21   29.89F HX  98
*HORSESHOE BAY SUNNY    101  51  18 S6G16     29.87S HX  98
*LAGO VISTA    SUNNY    102  58  23 SE8       29.90S HX 102
*KERRVILLE     SUNNY     98  56  24 S13G18    29.90S HX  96
*FREDERICKSBRG SUNNY     98  56  24 SE12      29.90S HX  96
*ROCKSPRINGS   SUNNY     95  48  20 SE10G18   29.96F HX  91
*BOERNE        SUNNY     97  54  23 S8        29.89F HX  94
*CASTROVILLE   SUNNY    102  54  19 SE12      29.85F HX 100
HONDO          SUNNY    101  56  22 SE8       29.84F HX 100
*UVALDE        SUNNY    100  54  21 SE12G20   29.85F HX  98
DEL RIO        SUNNY    103  53  19 SE13G23   29.79F HX 101
*LAUGHLIN AFB  SUNNY    102  50  17 SE18G24   29.78F HX  99
*SPOFFORD      SUNNY    103  55  20 S15       29.75F HX 101
CARRIZO SPRGS  NOT AVBL
*FAITH RANCH   SUNNY    102  52  18 SE8G21    29.82F HX 100
$$

TXZ173-191>194-202-209-217>225-228-250000-
CENTRAL AND SOUTH CENTRAL TEXAS

CITY           SKY/WX    TMP DP  RH WIND       PRES   REMARKS
GEORGETOWN     SUNNY    100  56  23 S12G17    29.88F HX  99
*TAYLOR        SUNNY    102  60  24 SE10      29.86S HX 103
AUSTIN/BERGSTM MOSUNNY  100  60  26 S7G20     29.84F HX 100
AUSTIN/MABRY   SUNNY    101  58  24 S6        29.86F HX 100
*PFLUGERVILLE  SUNNY     99  55  23 S13       29.84F HX  97
SAN MARCOS     SUNNY    100  62  28 SE10      29.86F HX 101
NEW BRAUNFELS  SUNNY    100  62  28 VRB7      29.83F HX 101
*RANDOLPH AFB  SUNNY    100  56  22 S13       29.83F HX  99
*SEGUIN        SUNNY    100  59  25 SE12      29.83F HX 100
SAN ANTONIO    MOSUNNY  101  59  24 SE16G24   29.85F HX 101
STINSON FIELD  SUNNY    101  62  27 S12G20    29.82F HX 102
*KELLY FIELD   SUNNY    100  59  25 SE7G18    29.82F HX 100
*PLEASANTON    MOSUNNY  103  61  25 SE8G21    29.83F HX 104
*KENEDY        SUNNY     99  65  32 SE13      29.85S HX 102
*LA GRANGE     SUNNY    102  63  27 S10       29.83F HX 104
*GIDDINGS      SUNNY    100  59  26 SE6       29.87F HX 100
*GONZALES      SUNNY    102  64  28 SE7G16    29.84F HX 104
$$

TXZ163>164-176>182-195>201-210>213-226-227-235-250000-
SOUTHEAST TEXAS

CITY           SKY/WX    TMP DP  RH WIND       PRES   REMARKS
COLLEGE STN    SUNNY    101  62  27 S8G20     29.86F HX 102
*BRYAN         SUNNY     99  64  31 SE9       29.88F HX 100
*CALDWELL      SUNNY    100  59  25 SE10      29.87S HX 100
*CROCKETT      SUNNY     99  64  32 S6        29.87S HX 101
*BRENHAM       SUNNY    100  62  28 SE6       29.87S HX 101
HUNTSVILLE     MOSUNNY  101  65  30 VRB3      29.87F HX 104
CONROE         SUNNY     95  67  39 SE6       29.88F HX  99
HOUSTON BUSH   MOSUNNY   96  70  42 SE15      29.87F HX 102
HOUSTON HOBBY  MOSUNNY   94  70  45 S17       29.87F HX 100
*HOUSTON SW AP SUNNY     96  73  47 S8        29.89S HX 104
PEARLAND       SUNNY     93  70  46 S12       29.90F HX  99
HOUSTON HOOKS  SUNNY     99  65  32 E6        29.86F HX 102
ELLINGTON FLD  MOSUNNY   93  70  46 S15       29.88F HX  99
SUGAR LAND     SUNNY     99  65  32 VRB3      29.87F HX 102
*HOUSTON EXEC  MOSUNNY   99  63  30 CALM      29.88S HX 100
*CLEVELAND MUN SUNNY     98  59  27 S9        29.89S HX  97
*WHARTON       MOSUNNY   95  66  38 S13       29.89S HX  98
*COLUMBUS      FAIR      98  64  32 SE8       29.87F HX 100
*EAGLE LAKE    SUNNY     99  65  33 SE14      29.87S HX 101
$$

TXZ214>216-236>238-250000-
THE UPPER TEXAS COAST

CITY           SKY/WX    TMP DP  RH WIND       PRES   REMARKS
*ORANGE        SUNNY     95  69  42 S13       29.92S HX 100
PORT ARTHUR    SUNNY     92  68  45 S10       29.89F HX  96
GALVESTON      SUNNY     91  75  59 S13       29.91F HX 101
ANGLETON       SUNNY     92  70  48 S15       29.90F HX  97
*BAY CITY      SUNNY     91  71  52 S13       29.90F HX  98
PALACIOS       SUNNY     90  73  57 S14       29.90F HX  98
$$

TXZ229>234-239>247-250000-
TEXAS COASTAL BEND AND RIO GRANDE PLAINS

CITY           SKY/WX    TMP DP  RH WIND       PRES   REMARKS
VICTORIA       SUNNY     95  70  44 S18G30    29.87F HX 101
*BEEVILLE      SUNNY     96  59  28 SE14G20   29.85F HX  95
ROCKPORT       SUNNY     91  75  59 SE15G23   29.88F HX 101
*PORT ARANSAS  SUNNY     87  76  69 SE14      29.91S HX  98
*PORT LAVACA   SUNNY     93  69  46 SE15      29.90S HX  98
*INGLESIDE     SUNNY     91  73  56 SE16G22   29.88F HX  99
CORPUS CHRISTI MOSUNNY   89  73  59 SE17G26   29.87S HX  97
CORPUS NAS     SUNNY     91  74  57 SE20      29.88F HX 100
*ROBSTOWN      SUNNY     93  68  42 SE17G24   29.87F HX  97
ALICE          SUNNY     96  70  42 SE17G30   29.85R HX 102
KINGSVILLE NAS MOSUNNY   93  71  48 SE18G25   29.86S HX 100
COTULLA        SUNNY    106  52  16 SE10      29.80F HX 103
LAREDO         SUNNY    104  55  19 S17G24    29.79F HX 102
$$

TXZ248>255-250000-
DEEP SOUTH TEXAS

CITY           SKY/WX    TMP DP  RH WIND       PRES   REMARKS
BROWNSVILLE    SUNNY     91  72  53 SE17G26   29.88F HX  98
PORT ISABEL    SUNNY     89  73  59 SE16G26   29.89S HX  97
HARLINGEN      SUNNY     93  71  48 SE20G26   29.87R HX 100
*HEBBRONVILLE  SUNNY    101  60  26 SE13G20   29.85S HX 101
MCALLEN        SUNNY     97  64  33 SE20G30   29.84F HX  99
*WESLACO       SUNNY     94  69  43 SE18      29.86S HX 100
FALFURRIAS     SUNNY     95  72  47 E17G26    29.83S HX 103
EDINBURG       SUNNY     96  71  44 SE16      29.85S HX 103
*ZAPATA        SUNNY    103  58  22 E14G20    29.82S HX 103
$$

TXZ213>215-236>238-242>244-246-247-251-254-255-250000-
CMAN STATIONS

STATION/POSITION TIME  TEMP    WIND        PRES    WAVE
                       AIR SEA DIR/SP/G            HT/PER
                 (UTC) (F)     (DEG/KT/KT) (MB)    (FT/S)
NORTH JETTY/GLS  2230   86 89  210/ 10/ 13 1011.8
EAGLE POINT      2230   88 92  160/ 10/ 12 1012.0
MORGANS POINT    2230   92 89  130/ 11/ 17 1011.8
MISSION/ARANSAS  2200   85     150/ 13     1013.0
PORT O`CONNOR    2230   84 93  120/ 11/ 13 1012.5
PORT ARANSAS     2200   83     120/ 14/ 16   N/A
BAFFIN BAY       2230   84 91  100/ 16/ 21 1012.3
PORT ISABEL      2230   85 85  140/ 15/ 20 1012.0
$$



USA.gov is the U.S. government's official web portal to all federal, state and local government web resources and services.